Погода в Северном Майами Бич

США     25°55′57″N   80°10′00″W
темп.,
°C
ветер,
м/с
пор.,
м/с
влажн.,
%
обл.,
%
осадки,
мм/ч
давл.,
гПа
погр.,
м
4 марта, чт
чт401:00+20сз67615 0.0 1016657
04:00+18сз56740 0.0 1015381
07:00+18ссз46770 0.0 1015396
10:00+21ссз44570 0.0 1016807
13:00+25ссз34360 0.0 10151494
16:00+26ссв33400 0.0 10141435
19:00+23ссз555410 0.1 10141132
22:00+22с566137 0.0 1015722
5 марта, пт
пт501:00+21с566118 0.0 1015702
04:00+20с58640 0.0 1014695
07:00+20с58640 0.0 1014710
10:00+23ссв686132 0.2 10161150
13:00+24св785656 1.0 10151275
16:00+24всв885956 0.4 10131150
19:00+22всв686354 0.4 1015985
22:00+22всв7866100 0.0 1015972
6 марта, сб
сб601:00+22всв687285 0.1 1014874
04:00+21всв577656 1.0 1013716
07:00+21всв587675 2.3 1013782
10:00+23в677093 1.1 1013820
13:00+25ююз246196 3.6 10131013
16:00+25сз455850 4.2 10101086
19:00+22с677048 9.2 1013861
22:00+21св7107389 2.4 1015867
7 марта, вс
вс701:00+20св577387 3.9 1015794
04:00+20ссв577181 2.3 1016763
07:00+20ссв697059 2.5 1018829
10:00+23ссв785516 0.1 10201308
13:00+24св785017 0.1 10201568
16:00+23св995631 0.1 10201304
19:00+21св8106132 0.4 10221281
22:00+21св9116529 0.5 10251306
8 марта, пн
пн801:00+20св9116421 0.8 10251254
04:00+19св9116123 0.2 10251207
07:00+19всв8116216 0.3 10271479
10:00+21всв9115162 0.1 10301641
13:00+21всв9115262 0.1 10281515
16:00+21всв9105361 0.0 10271496
19:00+20всв7106168 0.1 10281247
22:00+20всв9115777 0.2 10291532